Location: Recife
(8.0585°S, 34.8848°W)
Time: 21:35:29
(UTC-03:00)

Vanguard 3 - Pass Details

Date: 14 April 2026
Orbit: 507 x 3205 km, 33.4° (Epoch: 12 May)

Event Time Altitude Azimuth Distance (km) Brightness Sun altitude
Rises 07:23:15 0° 307° (NW) 4,574 10.7 28.5°
Reaches altitude 10° 07:25:46 10° 308° (NW) 3,880 10.4 29.1°
Maximum altitude 07:36:54 86° 36° (NE) 2,384 10.1 31.8°
Drops below altitude 10° 07:55:19 10° 124° (SE) 6,032 12.2 36.1°
Sets 08:00:20 0° 124° (SE) 7,147 12.4 37.3°
